Time,TemperatureF,DewpointF,PressureIn,WindDirection,WindDirectionDegrees,WindSpeedMPH,WindSpeedGustMPH,Humidity,HourlyPrecipIn,Conditions,Clouds,dailyrainin,SolarRadiationWatts/m^2,SoftwareType,DateUTC
2013-12-14 00:12:00,29.0,25.0,-100.00,East,84,1.0,4.0,86,0.00,,,0.05,0.000000,,2013-12-14 07:12:00,
2013-12-14 00:22:00,29.0,25.0,-100.00,East,84,1.0,4.0,86,0.00,,,0.05,0.000000,,2013-12-14 07:22:00,
2013-12-14 00:32:00,29.0,25.0,-100.00,East,84,1.0,4.0,86,0.00,,,0.05,0.000000,,2013-12-14 07:32:00,
2013-12-14 00:42:00,29.0,26.0,-100.00,NE,51,2.0,4.0,88,0.00,,,-99.99,0.000000,,2013-12-14 07:42:00,
2013-12-14 01:11:00,29.0,26.0,-100.00,NE,51,2.0,4.0,88,0.00,,,-99.99,0.000000,,2013-12-14 08:11:00,
2013-12-14 01:22:00,29.0,26.0,-100.00,NE,51,2.0,4.0,88,0.00,,,-99.99,0.000000,,2013-12-14 08:22:00,
2013-12-14 01:32:00,29.0,26.0,-100.00,NE,51,2.0,4.0,88,0.00,,,-99.99,0.000000,,2013-12-14 08:32:00,
2013-12-14 01:42:00,29.0,26.0,-100.00,North,-999,0.0,4.0,87,0.00,,,0.05,0.000000,,2013-12-14 08:42:00,
2013-12-14 02:12:00,29.0,26.0,-100.00,North,-999,0.0,4.0,87,0.00,,,0.05,0.000000,,2013-12-14 09:12:00,
2013-12-14 02:22:00,29.0,26.0,-100.00,North,-999,0.0,4.0,87,0.00,,,0.05,0.000000,,2013-12-14 09:22:00,
2013-12-14 02:33:00,29.0,26.0,-100.00,North,-999,0.0,4.0,87,0.00,,,0.05,0.000000,,2013-12-14 09:33:00,
2013-12-14 02:42:00,30.0,27.0,-100.00,North,-999,0.0,4.0,88,0.00,,,0.05,0.000000,,2013-12-14 09:42:00,
2013-12-14 03:12:00,30.0,27.0,-100.00,North,-999,0.0,4.0,88,0.00,,,0.05,0.000000,,2013-12-14 10:12:00,
2013-12-14 03:23:00,30.0,27.0,-100.00,North,-999,0.0,4.0,88,0.00,,,0.05,0.000000,,2013-12-14 10:23:00,
2013-12-14 03:33:00,30.0,27.0,-100.00,North,-999,0.0,4.0,88,0.00,,,0.05,0.000000,,2013-12-14 10:33:00,
2013-12-14 03:42:00,30.0,28.0,-100.00,ENE,60,1.0,4.0,92,0.00,,,0.05,0.000000,,2013-12-14 10:42:00,
2013-12-14 04:11:00,30.0,28.0,-100.00,ENE,60,1.0,4.0,92,0.00,,,0.05,0.000000,,2013-12-14 11:11:00,
2013-12-14 04:22:00,30.0,28.0,-100.00,ENE,60,1.0,4.0,92,0.00,,,0.05,0.000000,,2013-12-14 11:22:00,
2013-12-14 04:33:00,30.0,28.0,-100.00,ENE,60,1.0,4.0,92,0.00,,,0.05,0.000000,,2013-12-14 11:33:00,
2013-12-14 04:42:00,29.0,27.0,-100.00,NW,308,1.0,5.0,91,0.00,,,0.05,0.000000,,2013-12-14 11:42:00,
2013-12-14 05:12:00,29.0,27.0,-100.00,NW,308,1.0,5.0,91,0.00,,,0.05,0.000000,,2013-12-14 12:12:00,
2013-12-14 05:22:00,29.0,27.0,-100.00,NW,308,1.0,5.0,91,0.00,,,0.05,0.000000,,2013-12-14 12:22:00,
2013-12-14 05:32:00,29.0,27.0,-100.00,NW,308,1.0,5.0,91,0.00,,,0.05,0.000000,,2013-12-14 12:32:00,
2013-12-14 05:42:00,29.0,27.0,-100.00,North,-999,0.0,4.0,93,0.00,,,0.05,0.000000,,2013-12-14 12:42:00,
2013-12-14 06:11:00,29.0,27.0,-100.00,North,-999,0.0,4.0,93,0.00,,,0.05,0.000000,,2013-12-14 13:11:00,
2013-12-14 06:22:00,29.0,27.0,-100.00,North,-999,0.0,4.0,93,0.00,,,0.05,0.000000,,2013-12-14 13:22:00,
2013-12-14 06:32:00,29.0,27.0,-100.00,North,-999,0.0,4.0,93,0.00,,,0.05,0.000000,,2013-12-14 13:32:00,
2013-12-14 06:42:00,28.0,27.0,-100.00,East,88,1.0,4.0,94,0.00,,,0.05,0.000000,,2013-12-14 13:42:00,
2013-12-14 07:11:00,28.0,27.0,-100.00,East,88,1.0,4.0,94,0.00,,,0.05,0.000000,,2013-12-14 14:11:00,
2013-12-14 07:22:00,28.0,27.0,-100.00,East,88,1.0,4.0,94,0.00,,,0.05,0.000000,,2013-12-14 14:22:00,
2013-12-14 07:32:00,28.0,27.0,-100.00,East,88,1.0,4.0,94,0.00,,,0.05,0.000000,,2013-12-14 14:32:00,
2013-12-14 07:42:00,30.0,27.0,-100.00,NE,55,5.0,7.0,89,0.00,,,0.05,0.000000,,2013-12-14 14:42:00,
2013-12-14 08:11:00,30.0,27.0,-100.00,NE,55,5.0,7.0,89,0.00,,,0.05,0.000000,,2013-12-14 15:11:00,
2013-12-14 08:22:00,30.0,27.0,-100.00,NE,55,5.0,7.0,89,0.00,,,0.05,0.000000,,2013-12-14 15:22:00,
2013-12-14 08:33:00,30.0,27.0,-100.00,NE,55,5.0,7.0,89,0.00,,,0.05,0.000000,,2013-12-14 15:33:00,
2013-12-14 08:42:00,29.0,27.0,-100.00,WNW,282,2.0,6.0,92,0.00,,,0.05,2.000000,,2013-12-14 15:42:00,
2013-12-14 09:13:00,29.0,27.0,-100.00,WNW,282,2.0,6.0,92,0.00,,,0.05,2.000000,,2013-12-14 16:13:00,
2013-12-14 09:23:00,29.0,27.0,-100.00,WNW,282,2.0,6.0,92,0.00,,,0.05,2.000000,,2013-12-14 16:23:00,
2013-12-14 09:33:00,29.0,27.0,-100.00,WNW,282,2.0,6.0,92,0.00,,,0.05,2.000000,,2013-12-14 16:33:00,
2013-12-14 09:42:00,31.0,29.0,-100.00,East,80,2.0,7.0,92,0.00,,,0.05,14.000000,,2013-12-14 16:42:00,
2013-12-14 10:12:00,31.0,29.0,-100.00,East,80,2.0,7.0,92,0.00,,,0.05,14.000000,,2013-12-14 17:12:00,
2013-12-14 10:22:00,31.0,29.0,-100.00,East,80,2.0,7.0,92,0.00,,,0.05,14.000000,,2013-12-14 17:22:00,
2013-12-14 10:33:00,31.0,29.0,-100.00,East,80,2.0,7.0,92,0.00,,,0.05,14.000000,,2013-12-14 17:33:00,
2013-12-14 10:42:00,31.0,28.0,-100.00,ESE,108,3.0,4.0,88,0.00,,,0.05,33.000000,,2013-12-14 17:42:00,
2013-12-14 11:11:00,31.0,28.0,-100.00,ESE,108,3.0,4.0,88,0.00,,,0.05,33.000000,,2013-12-14 18:11:00,
2013-12-14 11:22:00,31.0,28.0,-100.00,ESE,108,3.0,4.0,88,0.00,,,0.05,33.000000,,2013-12-14 18:22:00,
2013-12-14 11:32:00,31.0,28.0,-100.00,ESE,108,3.0,4.0,88,0.00,,,0.05,33.000000,,2013-12-14 18:32:00,
2013-12-14 11:42:00,30.0,27.0,-100.00,NW,325,3.0,4.0,89,0.00,,,0.01,44.000000,,2013-12-14 18:42:00,
2013-12-14 12:12:00,30.0,27.0,-100.00,NW,325,3.0,4.0,89,0.00,,,0.01,44.000000,,2013-12-14 19:12:00,
2013-12-14 12:21:00,30.0,27.0,-100.00,NW,325,3.0,4.0,89,0.00,,,0.01,44.000000,,2013-12-14 19:21:00,
2013-12-14 12:32:00,30.0,27.0,-100.00,NW,325,3.0,4.0,89,0.00,,,0.01,44.000000,,2013-12-14 19:32:00,
2013-12-14 12:42:00,32.0,28.0,-100.00,NNW,336,2.0,4.0,85,0.00,,,0.01,109.000000,,2013-12-14 19:42:00,
2013-12-14 13:11:00,32.0,28.0,-100.00,NNW,336,2.0,4.0,85,0.00,,,0.01,109.000000,,2013-12-14 20:11:00,
2013-12-14 13:22:00,32.0,28.0,-100.00,NNW,336,2.0,4.0,85,0.00,,,0.01,109.000000,,2013-12-14 20:22:00,
2013-12-14 13:32:00,32.0,28.0,-100.00,NNW,336,2.0,4.0,85,0.00,,,0.01,109.000000,,2013-12-14 20:32:00,
2013-12-14 13:42:00,35.0,29.0,-100.00,ENE,62,1.0,4.0,78,0.00,,,0.00,152.000000,,2013-12-14 20:42:00,
2013-12-14 14:11:00,35.0,29.0,-100.00,ENE,62,1.0,4.0,78,0.00,,,0.00,152.000000,,2013-12-14 21:11:00,
2013-12-14 14:22:00,35.0,29.0,-100.00,ENE,62,1.0,4.0,78,0.00,,,0.00,152.000000,,2013-12-14 21:22:00,
2013-12-14 14:34:00,35.0,29.0,-100.00,ENE,62,1.0,4.0,78,0.00,,,0.00,152.000000,,2013-12-14 21:34:00,
2013-12-14 14:42:00,34.0,28.0,-100.00,SSE,156,2.0,7.0,79,0.00,,,0.00,134.000000,,2013-12-14 21:42:00,
2013-12-14 15:13:00,34.0,28.0,-100.00,SSE,156,2.0,7.0,79,0.00,,,0.00,134.000000,,2013-12-14 22:13:00,
2013-12-14 15:23:00,34.0,28.0,-100.00,SSE,156,2.0,7.0,79,0.00,,,0.00,134.000000,,2013-12-14 22:23:00,
2013-12-14 15:33:00,34.0,28.0,-100.00,SSE,156,2.0,7.0,79,0.00,,,0.00,134.000000,,2013-12-14 22:33:00,
2013-12-14 15:42:00,32.0,27.0,-100.00,SSW,206,1.0,4.0,82,0.00,,,-99.99,84.000000,,2013-12-14 22:42:00,
2013-12-14 16:12:00,32.0,27.0,-100.00,SSW,206,1.0,4.0,82,0.00,,,-99.99,84.000000,,2013-12-14 23:12:00,
2013-12-14 16:22:00,32.0,27.0,-100.00,SSW,206,1.0,4.0,82,0.00,,,-99.99,84.000000,,2013-12-14 23:22:00,
2013-12-14 16:33:00,32.0,27.0,-100.00,SSW,206,1.0,4.0,82,0.00,,,-99.99,84.000000,,2013-12-14 23:33:00,
2013-12-14 16:42:00,31.0,27.0,-100.00,WNW,303,2.0,4.0,85,0.00,,,0.00,21.000000,,2013-12-14 23:42:00,
2013-12-14 17:11:00,31.0,27.0,-100.00,WNW,303,2.0,4.0,85,0.00,,,0.00,21.000000,,2013-12-15 00:11:00,
2013-12-14 17:22:00,31.0,27.0,-100.00,WNW,303,2.0,4.0,85,0.00,,,0.00,21.000000,,2013-12-15 00:22:00,
2013-12-14 17:32:00,31.0,27.0,-100.00,WNW,303,2.0,4.0,85,0.00,,,0.00,21.000000,,2013-12-15 00:32:00,
2013-12-14 17:42:00,30.0,27.0,-100.00,NNE,33,1.0,3.0,89,0.00,,,0.00,4.000000,,2013-12-15 00:42:00,
2013-12-14 18:11:00,30.0,27.0,-100.00,NNE,33,1.0,3.0,89,0.00,,,0.00,4.000000,,2013-12-15 01:11:00,
2013-12-14 18:21:00,30.0,27.0,-100.00,NNE,33,1.0,3.0,89,0.00,,,0.00,4.000000,,2013-12-15 01:21:00,
2013-12-14 18:32:00,30.0,27.0,-100.00,NNE,33,1.0,3.0,89,0.00,,,0.00,4.000000,,2013-12-15 01:32:00,
2013-12-14 18:42:00,31.0,27.0,-100.00,NNE,14,1.0,4.0,84,0.00,,,0.00,0.000000,,2013-12-15 01:42:00,
2013-12-14 19:11:00,31.0,27.0,-100.00,NNE,14,1.0,4.0,84,0.00,,,0.00,0.000000,,2013-12-15 02:11:00,
2013-12-14 19:22:00,31.0,27.0,-100.00,NNE,14,1.0,4.0,84,0.00,,,0.00,0.000000,,2013-12-15 02:22:00,
2013-12-14 19:32:00,31.0,27.0,-100.00,NNE,14,1.0,4.0,84,0.00,,,0.00,0.000000,,2013-12-15 02:32:00,
2013-12-14 19:42:00,30.0,27.0,-100.00,North,-999,0.0,2.0,88,0.00,,,0.00,0.000000,,2013-12-15 02:42:00,
2013-12-14 20:12:00,30.0,27.0,-100.00,North,-999,0.0,2.0,88,0.00,,,0.00,0.000000,,2013-12-15 03:12:00,
2013-12-14 20:22:00,30.0,27.0,-100.00,North,-999,0.0,2.0,88,0.00,,,0.00,0.000000,,2013-12-15 03:22:00,
2013-12-14 20:33:00,30.0,27.0,-100.00,North,-999,0.0,2.0,88,0.00,,,0.00,0.000000,,2013-12-15 03:33:00,
2013-12-14 20:42:00,30.0,27.0,-100.00,SE,132,2.0,5.0,88,0.00,,,0.00,0.000000,,2013-12-15 03:42:00,
2013-12-14 21:02:00,-999.0,-99.9,-100.00,SE,132,2.0,5.0,-999,0.00,,,0.00,0.000000,,2013-12-15 04:02:00,
2013-12-14 21:13:00,30.0,27.0,-100.00,SE,132,2.0,5.0,88,0.00,,,0.00,0.000000,,2013-12-15 04:13:00,
2013-12-14 21:23:00,30.0,27.0,-100.00,SE,132,2.0,5.0,88,0.00,,,0.00,0.000000,,2013-12-15 04:23:00,
2013-12-14 21:33:00,30.0,27.0,-100.00,SE,132,2.0,5.0,88,0.00,,,0.00,0.000000,,2013-12-15 04:33:00,
2013-12-14 21:42:00,32.0,27.0,-100.00,ENE,72,2.0,6.0,80,0.00,,,0.00,0.000000,,2013-12-15 04:42:00,
2013-12-14 22:12:00,32.0,27.0,-100.00,ENE,72,2.0,6.0,80,0.00,,,0.00,0.000000,,2013-12-15 05:12:00,
2013-12-14 22:22:00,32.0,27.0,-100.00,ENE,72,2.0,6.0,80,0.00,,,0.00,0.000000,,2013-12-15 05:22:00,
2013-12-14 22:33:00,32.0,27.0,-100.00,ENE,72,2.0,6.0,80,0.00,,,0.00,0.000000,,2013-12-15 05:33:00,
2013-12-14 22:42:00,28.0,26.0,-100.00,West,278,1.0,4.0,92,0.00,,,0.00,0.000000,,2013-12-15 05:42:00,
2013-12-14 23:12:00,28.0,26.0,-100.00,West,278,1.0,4.0,92,0.00,,,0.00,0.000000,,2013-12-15 06:12:00,
2013-12-14 23:22:00,28.0,26.0,-100.00,West,278,1.0,4.0,92,0.00,,,0.00,0.000000,,2013-12-15 06:22:00,
2013-12-14 23:31:00,28.0,26.0,-100.00,West,278,1.0,4.0,92,0.00,,,0.00,0.000000,,2013-12-15 06:31:00,
2013-12-14 23:42:00,28.0,27.0,-100.00,NNW,330,2.0,4.0,94,0.00,,,0.00,0.000000,,2013-12-15 06:42:00,